Location: Balsareny
(41.8670°N, 1.8830°E)
Time: 23:13:22
(UTC+01:00)

X-37B - Pass Details

Date: 08 December 2021
Orbit: 334 x 337 km, 45.0° (Epoch: 11 January)

Event Time Altitude Azimuth Distance (km) Brightness Sun altitude
Rises 18:31:47 0° 239° (WSW) 2,094 6.1 -12.7°
Reaches altitude 10° 18:33:48 10° 236° (SW) 1,260 4.5 -13.1°
Maximum altitude 18:36:34 58° 156° (SSE) 394 0.5 -13.6°
Enters shadow 18:37:40 31° 89° (E) 614 1.0 -13.8°
